FW6343 Weather Reports


time (UTC)temp
C
wind
direction
speed
KPH
gust
KPH
rain 1hr
cm
rain 24hr
cm
rain mn
cm
humidity
%
barometer
mb
20260906081928 21 0 0.0 0.0 0.00 0.00 0.00 90 1013.2
20260906080453 21 0 0.0 0.0 0.00 0.00 0.00 89 1013.1
20260906080341 21 0 0.0 0.0 0.00 0.00 0.00 89 1013.1
20260906074858 21 0 0.0 0.0 0.00 0.00 0.00 89 1013.0
20260906073422 21 0 0.0 0.0 0.00 0.00 0.00 89 1013.0
20260906072000 21 0 0.0 0.0 0.00 0.00 0.00 88 1013.2
20260906070528 21 0 0.0 0.0 0.00 0.00 0.00 88 1013.2
20260906070337 21 0 0.0 0.0 0.00 0.00 0.00 88 1013.2
20260906065023 21 0 0.0 0.0 0.00 0.00 0.00 88 1013.1
20260906064835 21 0 0.0 0.0 0.00 0.00 0.00 88 1013.1
20260906063423 21 0 0.0 0.0 0.00 0.00 0.00 88 1013.2
20260906061827 21 0 0.0 0.0 0.00 0.00 0.00 87 1013.6
20260906060419 21 0 0.0 0.0 0.00 0.00 0.00 87 1013.7
20260906054953 22 0 0.0 0.0 0.00 0.00 0.00 87 1013.9
20260906053424 22 0 0.0 0.0 0.00 0.00 0.00 87 1014.1
20260906051924 22 0 0.0 0.0 0.00 0.00 0.00 87 1014.2
20260906050440 22 0 0.0 0.0 0.00 0.00 0.00 86 1014.2
20260906045016 22 0 0.0 0.0 0.00 0.00 0.00 87 1014.3
20260906044837 22 0 0.0 0.0 0.00 0.00 0.00 87 1014.3
20260906043421 22 0 0.0 0.0 0.00 0.00 0.00 87 1014.2
20260906041918 22 0 0.0 0.0 0.00 0.00 0.00 87 1014.2
20260906040453 22 0 0.0 0.0 0.00 0.00 0.00 86 1014.4
20260906034919 22 0 0.0 0.0 0.00 0.00 0.00 85 1014.5
20260906033425 22 0 0.0 0.0 0.00 0.00 0.00 85 1014.3
20260906032023 23 0 0.0 0.0 0.00 0.00 0.00 84 1014.5
20260906031921 23 0 0.0 0.0 0.00 0.00 0.00 84 1014.5
20260906030519 23 0 0.0 1.6 0.00 0.00 0.00 84 1014.4
20260906030348 23 0 0.0 1.6 0.00 0.00 0.00 84 1014.4
20260906024921 23 0 0.0 1.6 0.00 0.00 0.00 84 1014.2
20260906023515 23 0 0.0 0.0 0.00 0.00 0.00 84 1013.9
20260906023352 23 0 0.0 0.0 0.00 0.00 0.00 84 1013.9
20260906022003 23 0 0.0 0.0 0.00 0.00 0.00 84 1014.0
20260906021834 23 0 0.0 0.0 0.00 0.00 0.00 84 1014.0
20260906020516 23 0 0.0 0.0 0.00 0.00 0.00 83 1014.3
20260906020355 23 0 0.0 0.0 0.00 0.00 0.00 83 1014.3
20260906014958 23 0 0.0 0.0 0.00 0.00 0.00 81 1014.2
20260906014843 23 0 0.0 0.0 0.00 0.00 0.00 81 1014.2
20260906013452 24 0 0.0 0.0 0.00 0.00 0.00 80 1013.9
20260906011856 25 0 0.0 0.0 0.00 0.00 0.00 79 1014.0
20260906010430 25 0 0.0 0.0 0.00 0.00 0.00 77 1013.8
20260906005040 25 0 0.0 0.0 0.00 0.00 0.00 75 1013.5
20260906004841 25 0 0.0 0.0 0.00 0.00 0.00 75 1013.5
20260906003520 26 0 0.0 1.6 0.00 0.00 0.00 73 1013.1
20260906003341 26 0 0.0 1.6 0.00 0.00 0.00 73 1013.1
20260906001918 26 0 0.0 0.0 0.00 0.00 0.00 72 1013.0
20260906000352 26 0 0.0 0.0 0.00 0.00 0.00 72 1013.1
20260905234942 27 0 0.0 0.0 0.00 0.00 0.00 72 1013.2
20260905233342 27 0 0.0 0.0 0.00 0.00 0.00 71 1013.1
20260905232020 27 0 0.0 0.0 0.00 0.00 0.00 71 1013.3
20260905230434 27 0 0.0 0.0 0.00 0.00 0.00 70 1013.2
20260905224947 27 0 0.0 3.2 0.00 0.00 0.00 70 1013.0
20260905223451 27 0 0.0 0.0 0.00 0.00 0.00 69 1012.9
20260905222001 27 0 0.0 1.6 0.00 0.00 0.00 69 1013.3
20260905220351 27 0 0.0 1.6 0.00 0.00 0.00 68 1013.3
20260905214932 27 0 0.0 3.2 0.00 0.00 0.00 68 1013.3
20260905213439 27 0 0.0 1.6 0.00 0.00 0.00 67 1013.4
20260905211955 27 0 0.0 1.6 0.00 0.00 0.00 67 1013.6
20260905211843 27 0 0.0 1.6 0.00 0.00 0.00 67 1013.6
20260905210442 27 0 0.0 9.7 0.00 0.00 0.00 70 1013.5
20260905204921 27 197 0.0 8.0 0.00 0.00 0.00 69 1013.7
20260905203404 27 0 0.0 1.6 0.00 0.00 0.00 69 1013.5
20260905201924 26 0 0.0 6.4 0.00 0.00 0.00 71 1014.0
20260905200507 27 0 4.8 17.7 0.00 0.00 0.00 66 1013.6
20260905195032 28 115 0.0 11.3 0.00 0.00 0.00 63 1014.6
20260905194921 28 115 0.0 11.3 0.00 0.00 0.00 63 1014.6
20260905193439 29 0 0.0 24.1 0.00 0.00 0.00 60 1014.6
20260905193335 29 0 0.0 24.1 0.00 0.00 0.00 60 1014.6
20260905190417 35 0 3.2 11.3 0.00 0.00 0.00 48 1013.4
20260905184856 35 0 0.0 1.6 0.00 0.00 0.00 44 1013.0
20260905183516 36 0 0.0 8.0 0.00 0.00 0.00 43 1013.1
20260905183351 36 0 0.0 8.0 0.00 0.00 0.00 43 1013.1
20260905181926 36 0 0.0 8.0 0.00 0.00 0.00 44 1013.3
20260905180524 36 228 6.4 14.5 0.00 0.00 0.00 45 1013.7
20260905180419 36 228 6.4 14.5 0.00 0.00 0.00 45 1013.7
20260905175019 35 0 0.0 12.9 0.00 0.00 0.00 45 1013.8
20260905174912 35 0 0.0 12.9 0.00 0.00 0.00 45 1013.8
20260905173416 35 0 0.0 11.3 0.00 0.00 0.00 45 1013.9
20260905172007 35 0 0.0 6.4 0.00 0.00 0.00 45 1013.8
20260905171858 35 0 0.0 6.4 0.00 0.00 0.00 45 1013.8
20260905170518 35 185 3.2 16.1 0.00 0.00 0.00 46 1014.1
20260905170343 35 185 3.2 16.1 0.00 0.00 0.00 46 1014.1
20260905165019 35 0 3.2 9.7 0.00 0.00 0.00 49 1014.4
20260905164845 35 0 3.2 9.7 0.00 0.00 0.00 49 1014.4
20260905163419 34 0 3.2 11.3 0.00 0.00 0.00 49 1014.7
20260905162035 33 279 4.8 11.3 0.00 0.00 0.00 53 1014.7
20260905161841 33 279 4.8 11.3 0.00 0.00 0.00 53 1014.7
20260905160418 33 0 1.6 8.0 0.00 0.00 0.00 53 1014.8
20260905155024 32 0 0.0 0.0 0.00 0.00 0.00 55 1015.2
20260905154917 32 0 0.0 0.0 0.00 0.00 0.00 55 1015.2
20260905153528 32 0 0.0 0.0 0.00 0.00 0.00 56 1015.4
20260905153359 32 0 0.0 0.0 0.00 0.00 0.00 56 1015.4
20260905151918 32 0 0.0 1.6 0.00 0.00 0.00 59 1015.4
20260905150546 31 0 0.0 0.0 0.00 0.00 0.00 60 1015.4
20260905150348 31 0 0.0 0.0 0.00 0.00 0.00 60 1015.4
20260905144930 31 0 0.0 6.4 0.00 0.00 0.00 61 1015.4
20260905143518 30 0 0.0 6.4 0.00 0.00 0.00 65 1015.5
20260905143359 30 0 0.0 6.4 0.00 0.00 0.00 65 1015.5
20260905141916 29 0 0.0 0.0 0.00 0.00 0.00 68 1015.7
20260905140502 28 0 0.0 0.0 0.00 0.00 0.00 69 1015.8
20260905134930 27 0 0.0 0.0 0.00 0.00 0.00 75 1015.9
20260905133447 26 0 0.0 1.6 0.00 0.00 0.00 77 1016.0
20260905133343 26 0 0.0 1.6 0.00 0.00 0.00 77 1016.0
20260905131922 25 0 0.0 0.0 0.00 0.00 0.00 85 1015.9
20260905130356 24 0 0.0 0.0 0.00 0.00 0.00 89 1015.9
20260905124937 23 0 0.0 0.0 0.00 0.00 0.00 90 1015.7
20260905123533 23 0 0.0 0.0 0.00 0.00 0.00 91 1015.9
20260905123418 23 0 0.0 0.0 0.00 0.00 0.00 91 1015.9
20260905121928 22 0 0.0 0.0 0.00 0.00 0.00 90 1015.8
20260905120401 22 0 0.0 0.0 0.00 0.00 0.00 90 1015.6
20260905115004 22 0 0.0 0.0 0.00 0.00 0.00 89 1015.5
20260905113458 22 0 0.0 0.0 0.00 0.00 0.00 89 1015.3
20260905113326 22 0 0.0 0.0 0.00 0.00 0.00 89 1015.3
20260905112026 22 0 0.0 0.0 0.00 0.00 0.00 89 1015.2
20260905111845 22 0 0.0 0.0 0.00 0.00 0.00 89 1015.2
20260905110530 22 0 0.0 0.0 0.00 0.00 0.00 89 1015.1
20260905110420 22 0 0.0 0.0 0.00 0.00 0.00 89 1015.1
20260905104918 22 0 0.0 0.0 0.00 0.00 0.00 89 1015.0
20260905103426 22 0 0.0 0.0 0.00 0.00 0.00 89 1014.9
20260905101936 22 0 0.0 0.0 0.00 0.00 0.00 89 1014.8
20260905100522 22 0 0.0 0.0 0.00 0.00 0.00 89 1014.9
20260905100404 22 0 0.0 0.0 0.00 0.00 0.00 89 1014.9
20260905094927 22 0 0.0 0.0 0.00 0.00 0.00 88 1014.8
20260905093525 22 0 0.0 0.0 0.00 0.00 0.00 88 1014.7
20260905093354 22 0 0.0 0.0 0.00 0.00 0.00 88 1014.7
20260905091921 23 0 0.0 0.0 0.00 0.00 0.00 88 1014.7
20260905090538 23 0 0.0 0.0 0.00 0.00 0.00 88 1014.9
20260905090423 23 0 0.0 0.0 0.00 0.00 0.00 88 1014.9
20260905084943 23 0 0.0 0.0 0.00 0.00 0.00 88 1014.8
20260905083419 23 0 0.0 0.0 0.00 0.00 0.00 87 1014.9